Home   Weather   Murau   Past weeks

Flag for Austria Past Weather in Murau, Styria, Austria — Yesterday and Last 2 Weeks

Now
36 °F

Partly sunny.


Feels Like: 32 °F
Forecast: 18 / 40 °F
Wind: 5 mph from East

Location: Zeltweg

Current Time: Dec 4, 2016 at 3:34:08 pm

Latest Report: Dec 4, 2016 at 2:50 pm


Visibility: 12 mi

Pressure: 30.30 "Hg (27.27 "Hg at 848m altitude)

Humidity: 65%

Dew Point: 25 °F

Location of MurauLocation

Past Weather in Murau — Graph

°F

Murau Temperature Yesterday

Maximum temperature yesterday: 39 °F (at 1:50 pm)
Minimum temperature yesterday: 23 °F (at 6:50 am)
Average temperature yesterday: 30 °F

High & Low Weather Summary for the Past Weeks

 TemperatureHumidityPressure
High61 °F (Nov 22, 11:50 am)100% (Nov 20, 7:20 am)30.48 "Hg (Nov 20, 7:20 am)
Low16 °F (Nov 30, 4:50 am)21% (Dec 2, 5:50 am)29.80 "Hg (Nov 19, 1:50 pm)
Average41 °F72%30.09 "Hg
* Reported Nov 19 1:20 pm — Dec 4 1:50 pm, Murau, Weather by CustomWeather, © 2016

Note: Actual official high and low records may vary slightly from our data, if they occured in-between our weather recording intervals... More about our weather records

Advertising

Murau Weather History for the Previous 24 Hours

Scroll right to see more
 ConditionsComfort  
Time TempWeatherWind HumidityBarometerVisibility
1:50 pm
Sun, Dec 4
36 °FPartly sunny.5 mph65%30.30 "Hg12 mi
12:50 pm34 °FPartly sunny.2 mph70%30.30 "Hg12 mi
11:50 am30 °FPartly sunny.1 mph80%30.33 "Hg9 mi
10:50 am27 °FScattered clouds.1 mph86%30.33 "Hg6 mi
9:50 am25 °FScattered clouds.1 mph93%30.33 "Hg5 mi
8:50 am23 °FScattered clouds.1 mph93%30.33 "Hg1 mi
7:50 am19 °FIce fog.1 mph93%30.30 "Hg0 mi
6:50 am19 °FIce fog.1 mph93%30.30 "Hg1 mi
4:50 am21 °FPassing clouds.1 mph86%30.30 "Hg9 mi
3:50 am23 °FPassing clouds.No wind86%30.30 "Hg9 mi
9:50 pm
Sat, Dec 3
27 °FPassing clouds.1 mph86%30.27 "Hg9 mi
8:50 pm28 °FPassing clouds.1 mph86%30.27 "Hg12 mi
7:50 pm28 °FPassing clouds.2 mph93%30.24 "Hg9 mi
6:50 pm28 °FPassing clouds.1 mph86%30.24 "Hg9 mi
5:50 pm28 °FPassing clouds.2 mph86%30.21 "Hg12 mi
4:50 pm32 °FPassing clouds.1 mph75%30.21 "Hg12 mi
3:50 pm37 °FPartly sunny.6 mph65%30.18 "Hg19 mi
Weather by CustomWeather, © 2016

See weather overviewHow to use our weather pages